Location: Saint-Gilles les Bains
(21.0539°S, 55.2287°E)
Time: 16:36:38
(UTC+04:00)

ISS - Pass Details

Date: 18 June 2021
Orbit: 419 x 421 km, 51.6° (Epoch: 31 July)

Event Time Altitude Azimuth Distance (km) Brightness Sun altitude
Rises 18:20:34 0° 309° (NW) 2,364 1.7 -8.3°
Reaches altitude 10° 18:22:43 10° 302° (WNW) 1,506 0.6 -8.7°
Maximum altitude 18:25:58 43° 229° (SW) 605 -2.7 -9.4°
Drops below altitude 10° 18:29:15 10° 155° (SSE) 1,523 -1.3 -10.1°
Enters shadow 18:29:38 - 153° (SSE) 1,672 -1.2 -10.2°
